Wind_Speed
35 34 33 31 30 28 27 25 26 27 27 28 29 29 28 26 25 23 21 19 19 22 24 25 26 25 23 19 19 22 21 19 20 22 24 22 19 18 16 19 19 16 15 16 19 19 20 18 15 16 17 16 10 9 7 5 11 9 2 2 1 2 2 2 1 1 3 3 2 3 4 3 3 2 5 5 5 8 7 6 5 4 4 3 4 9 14 18
37 36 35 33 31 30 28 26 25 25 26 27 27 29 29 27 26 25 23 21 20 21 22 24 24 26 26 20 18 20 21 21 20 24 26 20 19 20 16 18 22 22 20 19 21 21 20 19 17 17 18 14 9 10 9 7 9 5 3 3 2 3 1 1 2 1 3 3 4 5 6 6 4 3 4 2 3 7 7 6 7 6 7 7 10 13 15 17
36 35 34 33 31 31 29 28 26 25 25 25 26 27 28 28 26 26 24 22 20 21 21 23 25 26 25 21 18 17 18 18 21 28 28 22 21 21 19 21 25 26 24 20 20 19 17 16 15 15 16 13 9 10 10 9 8 4 4 3 4 4 1 4 3 2 3 3 5 5 6 7 5 4 3 1 1 5 7 8 8 10 13 13 15 17 16 17
36 34 33 32 32 31 30 30 28 27 25 24 25 25 27 27 26 26 25 23 21 21 21 23 25 25 25 22 19 17 17 14 21 32 29 25 25 23 23 24 27 27 26 24 22 19 15 12 11 14 15 12 11 9 8 10 8 4 5 5 4 3 1 4 5 3 2 3 3 3 5 6 4 4 2 1 1 3 8 12 12 12 17 18 18 19 18 18
38 36 34 33 32 31 31 31 29 29 27 25 25 24 26 26 26 26 25 24 22 21 21 23 25 25 25 24 22 18 16 7 12 26 28 27 27 26 26 26 28 27 25 26 25 20 15 14 13 14 14 9 11 8 6 12 10 5 5 7 5 1 1 4 6 5 2 1 2 3 5 2 2 2 3 3 3 3 4 8 8 12 17 17 16 19 19 19
40 38 37 35 33 32 32 31 30 29 28 27 25 24 25 25 26 25 25 25 23 22 22 22 24 25 25 24 23 19 17 7 4 12 26 29 29 27 27 28 29 27 23 24 26 21 16 20 17 15 13 7 10 8 8 15 11 4 4 7 8 3 2 6 5 4 1 2 3 3 2 0 0 2 5 7 9 8 5 5 5 5 12 15 15 17 18 19
41 39 38 37 36 35 33 32 31 30 29 28 27 25 24 24 26 25 25 24 23 23 22 23 23 25 27 24 23 20 22 16 5 1 19 28 30 29 29 29 30 29 26 24 26 23 19 21 19 17 12 5 11 10 10 18 13 5 3 8 12 6 4 8 6 3 1 2 2 1 3 2 1 2 3 7 11 9 9 10 9 4 8 16 17 17 16 15
39 38 38 37 37 36 35 33 32 31 29 28 28 27 25 24 24 25 25 23 24 23 21 23 22 24 25 24 25 18 25 28 4 4 12 25 30 30 31 31 31 30 28 27 29 26 18 19 21 19 10 3 11 11 10 14 9 7 5 9 15 9 4 7 6 3 1 2 2 4 5 5 5 5 6 10 12 11 11 11 11 7 9 18 19 17 17 16
38 38 38 37 36 36 35 34 32 31 30 28 28 28 27 24 23 24 25 23 24 23 22 23 22 24 23 25 26 17 28 36 12 3 6 20 29 31 33 33 33 30 29 29 30 25 14 18 25 19 8 6 11 11 15 13 5 11 11 11 14 10 7 5 5 3 2 4 4 5 6 8 8 5 6 9 10 11 14 16 14 10 12 18 20 19 18 18
37 38 38 37 36 35 35 35 34 32 31 29 27 28 28 25 24 23 24 24 23 23 23 22 22 24 24 26 23 14 34 40 16 4 4 13 27 32 34 34 34 31 32 32 29 23 11 14 25 18 7 8 8 9 17 12 5 15 13 10 12 9 8 5 3 4 3 6 9 7 8 11 9 4 5 6 5 6 11 16 14 12 14 19 21 21 19 19
37 37 38 37 36 35 35 35 35 34 33 31 28 28 28 27 25 23 24 24 23 23 22 22 23 24 26 28 24 18 34 41 28 11 3 12 25 33 36 34 33 31 34 34 28 23 14 14 21 15 6 6 5 7 15 10 8 19 14 6 7 5 4 4 3 5 4 5 8 5 6 11 8 4 7 12 12 11 11 14 15 14 14 19 22 22 21 21
36 36 36 36 36 35 35 35 35 35 34 33 29 27 28 28 26 23 23 23 24 23 22 22 23 26 28 30 33 30 30 36 39 24 9 15 23 29 34 32 31 30 32 35 29 24 18 16 19 14 5 3 6 5 9 11 11 17 14 5 3 0 2 6 6 7 4 3 2 2 6 9 7 7 11 16 19 19 17 15 18 17 15 20 23 23 23 22
36 35 34 34 35 35 34 34 35 34 35 34 31 28 27 29 27 23 23 23 24 24 23 23 21 25 26 24 30 34 27 24 32 32 20 18 22 27 31 30 30 28 29 33 32 27 21 17 17 13 9 5 6 5 6 11 13 11 8 4 2 1 4 8 9 9 6 7 6 2 4 6 5 10 14 14 18 20 21 19 20 18 16 21 24 24 24 23
35 35 34 33 33 33 34 34 35 35 35 34 32 29 27 29 28 25 24 22 23 24 24 23 21 22 22 20 24 30 30 21 20 30 27 22 26 29 30 31 29 28 27 31 31 27 23 19 14 10 10 8 7 7 6 7 8 6 3 3 3 2 3 7 11 10 6 12 12 3 4 8 4 9 13 13 14 16 23 21 19 19 17 21 25 26 26 25
35 34 33 32 32 32 33 34 35 35 35 35 33 29 27 29 29 26 25 23 21 24 24 22 23 19 15 18 21 24 30 26 21 27 28 26 28 28 30 31 28 27 26 27 29 27 25 21 13 9 7 5 7 7 4 3 2 3 3 3 3 4 3 4 10 15 10 11 13 9 4 8 5 11 18 18 13 12 22 21 18 20 19 20 24 27 27 26
35 34 33 32 32 32 32 33 34 35 36 35 33 29 26 28 28 26 25 24 20 22 23 21 25 21 9 10 16 20 25 28 28 28 29 28 27 28 30 30 28 27 25 24 24 23 22 18 13 12 8 4 4 5 3 2 1 2 3 3 3 5 3 3 6 17 18 9 10 12 6 4 4 9 14 17 14 14 19 19 18 20 21 21 23 26 27 27
35 35 33 33 33 32 32 33 33 34 35 35 34 29 27 26 27 25 23 24 20 21 24 21 24 23 12 8 12 20 27 28 30 31 31 31 29 29 29 29 29 27 25 24 20 19 18 16 13 9 7 4 3 4 4 4 3 3 3 2 3 6 6 4 4 10 15 9 6 9 8 8 8 9 12 11 14 15 18 18 18 19 22 23 23 25 28 28
35 34 34 34 34 33 32 33 33 33 33 35 34 30 28 25 24 23 22 23 20 20 22 20 21 15 11 14 11 16 28 29 30 33 33 33 29 28 31 33 31 28 25 22 18 19 16 12 10 5 4 5 5 6 6 4 5 4 5 3 3 5 7 7 4 4 8 8 6 6 6 13 11 9 16 15 12 14 15 15 16 17 19 23 25 27 28 29
35 35 35 35 34 33 32 32 33 33 32 32 32 29 26 23 20 21 23 25 24 16 10 18 25 12 4 20 22 17 24 28 30 34 36 35 30 30 32 31 32 30 23 15 13 20 15 7 6 5 6 8 7 9 6 4 7 6 7 6 5 5 6 6 5 6 8 6 6 7 8 13 10 7 14 22 19 17 18 18 18 19 18 20 25 29 29 30
35 35 35 35 34 33 32 33 33 33 32 31 31 28 24 21 13 13 23 27 31 24 10 19 35 23 5 12 26 21 21 28 32 36 38 37 36 35 28 22 24 22 14 10 11 19 17 6 6 10 10 11 10 10 7 4 7 7 6 6 6 5 5 6 6 7 9 6 6 9 9 11 12 7 11 22 22 18 20 20 22 24 23 23 25 29 31 31
35 35 35 34 34 33 33 33 33 33 33 31 35 32 28 29 16 15 28 26 32 36 19 17 31 32 12 4 19 25 24 30 33 36 38 39 40 33 24 20 16 10 11 11 10 15 16 8 10 14 12 13 12 11 10 7 6 6 6 6 6 6 5 5 5 6 8 5 5 7 7 11 13 10 12 18 15 16 22 21 22 27 28 29 28 30 32 30
35 34 34 34 33 33 33 32 33 34 33 32 38 36 35 42 30 23 30 16 23 41 28 17 23 31 23 8 16 26 25 25 27 33 37 37 36 29 25 22 13 9 12 10 8 9 10 9 15 16 13 13 12 11 11 9 7 3 4 5 4 5 3 3 1 1 4 4 4 4 5 10 12 10 12 15 15 20 28 27 27 29 29 31 32 33 34 32
36 35 34 34 33 33 32 32 33 33 35 36 41 43 43 47 33 19 21 8 11 33 31 21 22 31 30 14 18 28 25 21 21 30 39 37 33 30 28 21 14 15 13 11 10 8 8 13 17 17 14 14 12 11 11 8 7 4 3 4 4 4 3 2 1 1 2 3 2 2 3 6 9 9 11 18 24 27 30 32 33 33 32 34 35 35 36 36
35 35 34 34 33 33 32 32 32 33 39 41 44 48 44 43 33 18 17 6 1 20 31 26 24 30 30 17 19 28 24 22 23 29 40 40 32 27 23 21 19 15 14 16 16 14 14 13 17 18 14 14 13 12 12 7 6 6 5 5 3 4 5 3 3 3 1 3 1 1 4 5 7 10 10 15 20 24 28 30 30 33 35 35 35 36 39 39
35 36 35 35 34 33 32 31 34 38 42 43 45 49 41 34 33 24 16 3 3 11 24 27 23 25 28 20 18 22 16 16 23 29 39 41 34 25 17 20 19 13 17 20 16 15 13 11 20 18 13 14 13 12 14 11 7 7 8 8 6 6 5 3 5 4 2 4 3 2 3 5 4 7 9 7 6 12 21 22 23 29 33 34 34 36 40 41
35 36 36 36 35 32 31 32 39 42 41 45 46 47 41 33 34 29 13 1 3 7 13 21 20 20 28 24 20 19 8 10 21 28 36 40 38 30 17 13 11 12 19 18 11 7 6 14 20 15 14 16 13 12 14 14 8 7 8 10 9 7 5 5 6 4 1 3 3 4 4 5 5 7 9 8 5 8 12 13 19 28 30 33 36 38 40 40
35 36 36 36 35 34 36 38 43 44 43 47 46 44 42 33 34 32 13 2 5 9 12 16 17 19 27 27 28 21 4 9 19 22 32 39 37 29 18 12 8 10 14 10 7 4 8 16 16 14 17 14 12 11 13 15 10 5 7 11 10 8 5 5 6 3 2 1 3 1 3 3 6 7 9 9 10 11 10 10 15 24 30 33 37 40 41 42
36 36 35 36 37 38 42 41 41 46 49 47 45 44 41 37 37 28 11 5 5 10 10 12 15 21 25 27 33 23 5 11 14 17 33 40 35 24 13 15 15 12 15 12 9 9 14 18 17 19 17 12 12 11 12 16 10 4 8 11 10 7 2 2 2 2 1 1 4 3 2 2 7 6 5 6 8 10 12 12 12 20 30 35 39 41 43 43
36 35 35 36 36 37 42 40 41 49 50 44 42 43 41 40 34 15 4 6 3 5 8 16 17 17 21 22 25 19 6 8 5 10 30 38 33 19 8 18 20 13 17 18 12 7 11 20 24 20 14 11 11 8 12 16 8 4 9 8 5 4 3 3 1 3 2 1 5 5 4 3 6 4 3 3 4 8 11 10 11 20 30 34 37 40 41 42
35 35 36 35 36 41 43 41 43 45 45 41 39 43 43 35 20 6 9 7 3 1 8 18 17 17 22 16 13 13 8 6 3 6 21 30 31 20 11 19 18 8 12 16 11 4 6 18 21 14 13 12 10 10 14 16 10 8 7 6 6 4 4 3 2 4 1 6 6 8 8 4 5 4 4 4 5 8 10 8 10 17 25 30 33 37 39 40
36 36 37 38 40 45 45 43 42 43 45 42 39 45 40 20 6 5 9 3 3 4 7 13 15 18 23 16 11 13 9 7 6 5 11 18 20 16 10 12 9 4 9 11 8 3 5 12 10 9 16 16 12 9 10 11 12 10 6 6 6 2 3 2 3 3 4 8 4 7 9 6 7 6 3 5 6 6 8 8 10 13 19 25 28 31 34 37
36 37 37 39 42 44 46 46 44 44 46 45 44 44 28 7 5 8 3 0 3 7 7 10 15 16 20 17 13 15 11 8 8 6 7 8 10 12 10 9 9 6 7 10 7 4 5 8 7 6 13 18 16 8 3 5 5 5 6 8 7 3 2 3 2 2 5 5 1 5 6 5 9 6 6 11 12 11 11 12 14 15 20 24 24 24 26 31
36 37 37 40 42 44 46 45 44 44 46 49 46 34 14 5 9 7 3 4 3 4 8 11 15 17 20 18 13 14 13 11 11 9 8 7 8 12 13 13 15 9 5 10 11 7 5 7 10 8 7 15 17 10 5 5 6 8 9 11 9 6 5 7 4 1 4 3 1 4 4 3 7 4 9 16 17 19 19 20 21 18 17 20 18 16 16 22
37 38 39 42 43 45 45 43 45 45 48 52 39 19 9 8 7 5 5 5 3 4 11 12 14 17 18 17 12 14 13 10 11 10 7 7 6 9 13 13 16 9 4 9 10 11 10 7 13 14 9 16 18 15 16 13 11 13 8 8 9 6 6 7 5 4 4 2 2 3 3 4 4 3 8 12 16 21 23 24 26 23 22 22 19 17 16 16
39 41 41 40 41 43 42 43 46 46 52 47 21 8 12 9 5 5 5 5 3 5 12 13 15 14 13 12 10 15 15 10 13 11 7 9 6 5 9 11 16 11 6 8 5 7 10 4 9 14 12 19 19 15 17 13 8 7 3 4 6 5 5 3 3 5 5 2 2 3 3 4 4 7 11 10 13 16 17 19 20 23 27 26 25 26 25 20
42 41 37 33 35 37 38 43 46 49 55 37 8 5 10 5 3 5 5 5 3 7 14 13 12 11 9 8 7 14 13 7 12 12 8 11 10 7 7 7 15 15 10 10 5 5 8 4 10 13 10 20 23 16 16 15 9 4 4 5 3 3 5 4 0 1 5 2 3 4 6 4 2 9 12 11 14 12 10 11 13 17 20 20 24 28 27 24
37 36 33 29 29 31 36 43 48 54 50 26 7 7 4 1 4 4 4 6 2 6 14 11 8 9 8 7 7 13 11 4 10 11 8 9 9 11 11 8 12 17 14 10 4 4 6 3 8 12 10 19 25 21 16 12 8 6 7 8 3 3 3 3 1 1 3 4 3 5 9 4 1 6 6 7 13 12 9 8 11 15 15 16 23 26 26 24
34 32 29 28 31 31 35 42 50 54 39 15 8 7 2 2 4 3 3 6 4 4 8 7 6 7 9 9 8 13 12 7 9 10 9 7 4 9 15 10 11 16 18 13 4 2 5 3 1 5 6 8 11 12 10 4 1 2 9 11 7 2 2 4 4 3 4 6 5 4 8 5 6 7 4 4 8 9 9 8 8 11 14 19 24 25 23 21
33 26 19 25 33 33 36 41 44 40 23 8 7 5 1 2 4 5 5 4 4 4 6 3 2 5 8 9 10 13 14 12 11 9 8 7 4 7 15 12 10 16 20 14 4 2 5 5 1 2 3 6 5 6 10 6 4 2 6 9 6 4 4 7 5 3 5 7 6 3 2 4 7 7 7 9 11 10 9 7 7 11 17 23 25 23 19 15
26 14 9 20 31 34 41 39 30 19 9 5 5 3 3 2 3 6 8 6 3 2 4 2 1 6 8 9 10 11 12 13 12 9 7 8 7 6 12 13 10 14 20 15 7 3 2 4 4 1 1 5 7 8 13 14 7 5 8 9 8 4 2 3 4 3 4 4 4 3 3 6 5 5 11 14 15 14 11 7 7 13 19 22 20 17 13 11
19 7 5 17 26 36 41 28 13 5 2 3 3 2 5 5 4 6 8 7 4 3 3 3 2 4 6 8 10 9 9 10 10 8 5 8 8 4 10 17 13 12 16 13 8 5 2 3 6 5 3 6 8 9 13 16 14 12 10 11 11 7 4 4 5 3 2 2 3 3 6 7 5 5 9 12 13 11 9 9 9 14 19 16 13 11 10 10
13 6 6 14 23 35 31 12 3 3 2 3 4 4 8 7 5 6 6 6 5 3 3 3 1 1 2 4 6 8 8 7 9 8 5 8 10 5 11 22 20 14 14 12 10 8 3 2 5 5 4 4 3 2 4 7 11 7 3 7 10 7 6 7 8 5 4 5 4 3 6 7 4 7 9 11 11 10 13 14 11 13 15 12 11 12 10 9
11 10 11 15 24 31 19 4 3 3 1 3 6 7 10 6 3 6 4 2 3 2 2 3 0 0 1 1 4 8 8 4 7 9 7 8 11 9 13 21 22 15 11 10 9 6 2 2 5 3 1 2 2 2 5 3 6 4 1 3 8 9 10 8 6 5 5 8 7 4 7 6 3 3 5 8 11 11 14 17 14 14 15 14 14 12 9 8
16 15 11 13 21 21 8 2 5 4 1 4 6 5 5 4 4 6 4 2 3 2 2 2 1 1 1 2 3 7 6 2 3 6 4 4 7 10 15 20 21 13 9 10 10 9 4 3 6 5 2 1 1 1 2 2 4 5 4 6 9 13 12 5 3 4 5 11 11 7 9 7 3 2 3 1 4 6 8 13 16 16 16 15 13 10 9 10
16 12 7 10 16 10 4 3 4 4 4 4 5 3 3 3 3 7 7 4 3 4 3 3 4 4 3 3 3 2 3 3 2 3 2 1 2 5 11 16 17 14 14 14 14 14 7 4 7 8 8 9 9 10 10 9 8 7 9 14 16 19 19 12 7 6 8 11 12 10 10 5 2 4 4 5 1 4 5 9 13 13 14 15 13 12 12 12
9 5 4 6 7 4 5 4 4 3 4 4 4 2 3 3 1 6 9 4 2 4 4 3 5 6 4 3 4 2 1 2 3 2 2 1 2 0 5 9 11 14 19 17 15 11 4 3 10 10 10 11 9 7 8 13 14 11 14 20 19 19 19 14 8 9 11 8 6 9 12 8 5 5 5 5 3 5 6 7 12 13 13 14 13 12 12 14
5 3 4 4 3 2 2 4 4 2 3 5 4 1 4 4 1 3 4 2 5 7 3 1 4 4 3 4 4 2 2 3 4 3 3 3 2 3 2 5 4 11 16 14 13 9 3 5 13 13 12 8 3 5 8 12 17 18 19 20 17 14 15 13 12 13 10 4 4 10 12 11 11 7 7 9 8 8 7 8 13 15 15 15 13 12 13 15
5 4 6 6 3 2 1 1 2 2 2 5 5 3 6 6 4 3 2 2 7 8 3 2 2 5 7 7 4 3 3 3 3 3 3 3 1 2 2 2 1 6 9 9 11 8 2 6 12 13 14 9 3 9 13 14 16 19 20 21 20 19 19 19 19 18 13 9 13 16 14 15 18 15 13 14 12 10 10 11 14 16 16 16 14 15 17 19
7 8 8 6 2 4 6 4 5 4 3 3 3 3 6 6 5 3 1 3 5 5 4 3 5 8 9 8 6 4 4 4 3 4 3 3 3 2 1 1 2 4 6 6 7 5 3 5 8 11 14 10 5 8 14 16 15 15 17 20 22 23 24 24 23 22 19 15 18 21 19 22 22 14 15 19 19 16 16 17 17 16 16 17 18 19 21 23
7 6 5 4 4 6 8 4 4 4 2 2 2 2 5 6 5 2 1 4 4 3 3 4 6 8 7 7 7 6 7 6 4 3 4 3 2 2 3 2 0 2 4 5 4 3 4 6 8 10 10 9 7 8 13 17 16 15 17 18 19 20 20 21 21 19 17 17 22 22 20 21 14 6 9 17 22 20 20 20 19 19 20 22 21 22 24 26
10 8 7 6 4 4 6 2 4 4 2 2 1 0 2 5 6 3 1 5 7 5 4 4 5 4 3 4 5 7 9 10 8 8 9 6 4 3 2 1 3 2 2 4 4 3 2 3 8 8 6 7 9 11 14 16 16 17 18 18 20 19 19 19 20 19 18 21 24 20 17 18 10 6 9 13 16 17 16 19 21 23 26 26 24 25 28 28
10 9 8 7 3 2 4 2 4 4 0 1 1 0 1 4 7 5 2 4 5 4 4 6 8 5 2 5 9 11 13 14 12 12 13 10 6 2 1 2 3 3 1 2 3 4 4 3 5 7 7 8 10 13 13 12 11 13 16 22 25 25 23 22 21 22 23 21 18 15 17 17 7 8 11 12 11 12 15 22 26 25 27 29 28 30 31 29
Wind_Direction
219 220 219 217 216 215 213 209 207 209 211 213 215 215 215 213 213 211 211 210 207 215 221 224 225 224 226 226 222 220 220 226 231 229 223 217 211 214 211 203 198 175 166 170 170 172 173 177 181 185 190 189 191 191 177 164 177 188 171 125 229 231 227 224 199 204 144 158 198 99 86 107 119 110 109 121 136 134 143 152 147 153 170 181 155 158 172 183
219 220 220 219 218 217 216 212 207 208 209 211 212 214 215 213 212 211 212 210 204 210 214 219 222 224 228 230 226 221 225 231 237 235 223 212 208 213 203 187 185 171 161 154 158 171 174 175 175 180 188 189 185 185 187 178 180 180 114 148 215 229 223 138 168 136 95 140 148 112 102 100 102 124 118 131 177 154 148 155 166 151 138 151 160 169 180 187
219 219 220 220 220 218 218 217 211 208 208 208 210 212 214 213 212 211 211 210 206 208 210 215 219 222 227 232 231 221 223 230 240 237 220 208 207 207 200 185 179 174 174 166 158 167 172 176 179 181 186 188 180 172 181 178 176 176 132 170 234 239 170 99 122 102 87 129 132 124 117 103 91 106 132 169 179 180 183 176 177 165 158 163 170 177 185 192
219 219 220 222 224 221 219 219 216 213 210 208 208 210 214 213 212 211 210 209 207 207 208 211 214 218 222 227 233 223 216 226 245 238 217 207 206 201 200 189 181 178 181 185 178 172 175 184 188 194 195 192 187 175 183 184 176 175 156 175 216 247 197 124 125 118 112 114 122 135 116 107 106 120 172 206 54 266 219 199 211 208 188 179 179 186 191 197
220 220 222 222 223 224 223 221 219 217 214 210 207 208 213 213 213 210 208 208 205 206 206 207 210 215 218 224 233 224 203 209 263 242 222 211 203 199 199 193 188 182 182 191 187 179 183 192 186 189 191 184 185 186 205 192 175 172 181 177 180 276 219 158 139 134 140 89 93 98 99 119 131 155 239 220 190 245 209 192 229 231 209 199 193 195 197 203
220 220 222 223 222 224 227 225 222 219 215 213 210 208 211 213 214 211 209 206 204 206 203 204 207 211 215 221 231 226 201 188 354 239 225 214 201 196 196 194 194 186 184 189 182 178 182 187 186 184 182 173 182 185 201 195 179 168 214 197 198 248 176 156 151 133 87 35 80 82 55 283 154 286 262 230 223 238 238 239 283 246 214 216 208 201 204 209
216 217 219 221 222 225 227 227 227 222 217 213 211 211 211 213 214 212 209 205 203 205 204 204 203 205 211 214 226 232 215 207 56 102 215 210 202 195 192 195 194 190 192 190 181 178 175 184 197 195 181 162 182 188 195 195 192 182 218 206 206 228 151 151 168 137 58 19 54 356 317 300 243 283 261 236 238 245 246 255 279 278 207 208 207 206 212 216
213 214 217 218 221 223 224 227 228 226 222 215 212 212 212 213 214 214 210 205 204 204 205 204 201 203 204 206 215 225 224 218 188 51 194 195 201 195 190 195 194 194 196 190 181 174 173 198 209 196 185 181 183 184 178 180 201 214 206 200 202 213 173 160 179 163 277 268 294 275 277 285 276 271 254 254 255 246 239 249 260 256 205 203 208 212 214 216
212 212 213 216 218 220 223 225 226 228 226 219 214 211 211 213 213 214 211 207 203 203 207 205 203 205 202 205 206 214 236 229 208 88 165 184 197 195 192 194 194 194 189 183 178 175 181 207 204 190 186 202 186 180 171 164 206 212 200 198 199 206 193 175 193 204 289 280 284 272 271 283 282 275 259 260 267 254 240 243 248 238 212 206 211 214 215 215
212 211 210 212 214 216 219 222 225 227 228 224 217 211 210 211 213 213 211 208 203 202 208 206 205 206 205 204 195 210 237 233 217 157 134 189 196 193 193 195 194 189 183 181 178 180 178 185 191 192 207 205 190 185 179 174 197 194 190 189 186 187 187 184 218 244 302 303 294 273 262 278 274 248 245 251 273 280 246 233 228 219 213 211 212 214 217 219
211 210 208 208 210 212 213 217 221 224 228 227 220 213 210 210 211 213 211 209 204 201 206 209 207 206 210 205 194 211 231 232 231 216 168 211 203 194 195 196 195 186 181 181 177 181 169 154 174 186 221 209 176 182 185 187 186 181 173 160 178 172 186 207 241 263 280 288 284 275 270 277 271 228 239 251 259 267 249 224 213 210 211 212 213 215 217 222
210 209 206 205 208 210 211 212 215 219 225 227 223 215 210 210 210 210 211 210 206 200 202 209 209 208 212 208 206 217 229 233 233 228 218 222 213 202 200 199 198 191 185 183 177 178 168 151 162 177 235 210 145 155 189 192 173 172 169 152 208 249 269 237 229 249 257 245 244 2 311 270 246 233 244 258 263 256 240 221 212 211 210 210 212 216 220 224
208 209 206 204 205 208 210 211 212 215 220 225 225 216 210 209 207 207 209 210 208 201 200 208 211 213 211 209 213 218 225 232 230 226 222 219 215 208 204 203 202 198 194 192 185 177 169 155 155 179 231 230 171 159 173 176 159 159 169 154 166 1 273 234 225 240 245 247 247 22 299 251 223 239 248 268 271 249 226 214 214 215 212 207 210 216 221 223
208 209 208 206 207 207 208 210 211 212 216 222 224 217 210 207 206 206 206 209 209 201 202 209 211 215 219 222 224 221 221 223 219 216 212 209 207 202 202 204 203 201 198 197 192 179 171 165 156 182 230 233 186 162 145 153 149 142 147 155 168 188 227 217 215 220 230 248 238 162 252 256 246 252 257 283 287 242 215 211 216 222 217 209 209 215 221 223
208 209 209 210 211 211 209 209 210 211 213 218 222 218 209 207 206 205 206 210 208 201 202 210 211 210 221 235 234 228 223 218 213 210 205 204 202 196 199 202 201 201 197 195 190 179 176 175 168 186 226 225 167 150 132 121 138 151 155 176 200 205 221 236 214 205 213 236 209 169 252 275 252 251 251 259 271 227 211 215 220 225 223 214 212 215 220 223
208 210 211 212 213 214 212 211 211 211 212 215 219 217 208 207 206 204 207 210 212 205 199 206 209 204 207 237 232 222 214 212 214 212 205 205 206 201 200 197 194 196 194 189 181 177 181 177 169 185 206 224 176 141 121 127 205 217 181 171 183 194 224 295 243 213 209 207 191 193 235 278 251 271 257 235 227 208 206 216 221 224 224 219 216 216 219 221
208 210 212 212 213 214 214 213 212 211 211 212 215 214 207 206 205 205 207 212 215 201 195 202 200 201 216 231 216 203 203 205 203 201 200 201 206 204 195 189 188 189 186 181 179 180 184 176 163 173 191 228 224 151 154 184 194 202 189 183 193 187 195 222 269 228 203 188 198 208 231 252 250 285 279 227 205 206 206 214 222 224 225 223 220 218 219 220
208 209 211 212 214 214 214 215 212 211 210 210 213 210 205 206 206 206 206 209 206 188 191 195 183 189 226 223 207 193 203 206 196 195 197 196 201 202 195 191 185 180 176 177 186 182 175 171 156 139 170 206 216 184 191 191 164 169 180 204 222 194 196 201 226 226 180 180 211 191 228 252 249 262 265 249 223 215 218 226 233 233 230 227 222 218 219 220
207 209 211 212 213 213 213 213 212 212 209 207 210 207 204 207 206 209 209 200 190 183 186 181 179 178 211 212 209 202 205 204 197 199 199 194 192 192 193 191 181 175 170 170 188 181 165 143 148 160 189 196 202 198 202 160 152 170 180 195 206 198 216 207 215 216 168 167 217 198 221 249 250 242 251 255 250 237 238 244 244 241 237 232 225 220 220 221
207 209 211 211 212 212 211 211 210 210 208 203 201 198 196 195 191 203 207 201 193 191 193 185 190 194 176 195 201 200 195 193 192 192 196 196 186 180 183 183 176 177 180 172 178 179 170 149 180 197 195 187 191 197 203 182 170 175 176 199 208 205 234 215 217 222 173 161 220 215 224 249 252 241 239 249 254 251 246 243 243 242 239 235 229 223 222 224
207 209 211 211 212 212 211 210 208 208 206 202 198 194 191 188 180 184 193 202 204 198 202 203 200 204 211 167 185 187 180 183 191 190 192 195 184 175 176 174 167 184 209 187 155 167 174 184 207 202 186 178 186 191 194 209 205 182 176 197 209 212 242 229 211 212 179 173 236 223 223 250 253 248 243 245 248 251 248 244 243 244 241 237 232 227 226 228
207 209 210 211 212 212 212 208 206 206 204 203 201 200 202 197 193 193 188 192 211 204 206 212 207 209 214 205 182 183 177 179 192 192 187 185 182 174 170 172 170 186 201 185 149 156 179 210 210 193 174 173 185 190 188 206 221 203 171 179 211 221 249 299 7 161 177 187 248 236 221 251 260 257 252 247 243 247 249 248 247 246 243 238 233 229 228 228
209 210 210 211 212 212 211 207 204 203 201 201 202 204 209 204 198 196 187 169 206 206 207 208 205 207 206 196 178 179 180 181 191 192 182 177 181 178 170 171 177 182 184 184 174 165 191 215 200 176 167 173 181 188 186 199 219 216 164 167 214 219 207 262 27 122 197 195 218 255 254 263 269 269 261 247 242 246 249 248 248 246 243 241 239 234 230 228
211 211 212 212 211 209 208 205 202 202 201 201 204 205 207 205 198 181 174 164 285 203 206 208 207 209 204 190 176 178 180 183 190 194 186 179 179 179 176 175 176 179 182 185 185 188 207 205 176 166 169 172 173 184 187 192 213 217 197 181 201 216 215 215 170 154 226 310 307 328 304 280 253 255 260 250 240 243 247 245 245 244 242 245 245 239 234 232
212 212 213 212 210 208 204 202 202 202 202 202 205 206 204 203 197 181 166 166 339 196 201 205 207 211 204 193 185 178 174 185 192 195 190 185 180 174 181 186 180 180 182 183 187 203 213 170 158 171 173 169 174 183 190 189 196 219 213 200 192 212 230 185 146 136 60 319 264 159 283 283 266 256 260 265 245 239 246 242 240 243 241 242 244 239 235 233
213 212 212 211 211 207 199 200 203 201 200 204 206 204 202 199 195 188 171 129 255 180 179 190 195 204 201 193 179 167 171 207 196 194 192 191 187 177 174 188 191 189 180 178 189 211 203 163 164 173 170 174 185 189 190 185 187 218 202 185 192 213 225 157 149 164 151 269 258 156 197 272 297 282 265 271 276 252 249 243 238 240 240 239 240 239 236 234
213 212 212 211 209 203 196 199 202 198 197 204 206 203 198 193 193 191 180 266 234 159 159 180 182 191 195 186 174 169 168 186 189 202 197 193 194 187 179 178 183 195 176 168 205 190 158 170 171 170 172 181 193 193 190 180 188 220 166 163 193 209 213 177 161 193 203 271 308 206 180 271 280 268 262 254 260 266 258 248 239 237 237 237 238 238 238 237
213 213 211 208 206 204 201 198 196 196 200 203 202 198 193 189 192 188 182 244 191 135 151 173 177 188 186 177 179 184 156 145 174 211 203 196 195 192 192 185 178 183 174 170 203 184 162 173 173 172 179 189 194 190 176 175 193 223 159 166 191 188 200 273 180 176 66 31 286 245 151 279 264 258 277 248 239 258 256 247 240 235 235 236 237 238 238 238
212 211 209 206 204 205 204 199 196 199 202 201 195 191 189 185 182 173 205 233 145 111 153 161 172 178 164 163 180 189 168 140 153 195 195 199 199 194 196 192 186 178 180 189 201 181 172 184 178 172 181 191 187 170 159 176 198 188 155 151 141 112 59 5 151 130 64 299 238 207 167 250 265 241 251 249 223 240 248 245 239 237 236 235 236 238 239 239
210 209 206 202 199 199 200 199 200 200 197 196 192 187 183 176 164 162 224 210 102 101 158 156 165 156 150 159 182 188 181 169 152 168 188 197 202 202 192 190 192 176 183 204 211 179 166 182 176 175 189 181 160 157 167 176 167 129 121 105 86 53 42 37 28 89 93 259 219 178 172 199 272 250 206 214 225 226 231 242 246 244 242 239 237 239 241 240
207 204 201 199 196 194 194 194 199 199 193 190 187 182 177 167 154 212 215 192 92 175 160 155 161 153 160 172 179 181 187 189 177 164 187 195 199 199 182 180 192 180 186 200 208 185 144 162 164 183 188 164 141 157 164 159 152 132 123 126 116 55 22 25 359 70 215 250 222 173 164 169 238 260 235 239 257 242 224 229 240 245 243 240 239 242 245 243
200 199 197 197 196 194 193 193 195 194 191 187 179 172 169 167 217 211 193 155 190 181 168 160 159 159 169 177 181 178 178 189 183 165 186 204 204 192 184 182 176 177 193 184 177 174 163 168 160 166 176 163 154 158 114 118 156 148 139 146 146 161 185 201 216 177 218 249 241 161 147 180 239 257 257 259 265 254 235 231 236 241 244 244 243 247 251 247
193 192 191 192 193 193 194 194 192 190 187 180 171 163 165 215 204 185 163 211 232 161 156 162 162 161 164 174 188 180 177 194 189 179 192 220 228 201 197 196 182 182 186 170 167 163 176 193 173 157 167 174 169 159 151 154 178 185 169 167 175 166 181 202 196 210 234 239 209 145 129 254 271 266 234 242 253 254 252 248 247 249 249 252 254 254 257 249
186 184 185 188 189 190 193 192 190 188 177 169 164 160 185 211 184 154 172 212 270 145 151 160 161 160 166 177 182 172 180 206 194 182 186 213 242 206 201 202 192 190 147 164 180 172 179 196 177 173 170 176 180 179 177 169 176 194 183 171 184 172 182 194 181 203 219 228 219 166 144 211 226 248 236 237 254 264 264 255 250 256 259 261 264 263 262 256
177 178 180 183 185 188 191 189 188 184 170 163 161 175 190 197 175 163 175 193 232 161 150 157 158 159 175 183 174 175 186 199 190 185 190 208 233 210 201 200 191 188 156 169 191 176 190 216 174 176 165 168 184 189 173 156 169 202 158 159 199 183 164 159 170 188 158 111 212 203 232 214 203 277 282 268 263 266 269 259 249 253 258 260 260 258 258 258
162 167 169 170 178 185 186 185 186 180 168 162 167 198 185 202 180 172 168 166 191 156 146 154 163 164 177 177 170 185 193 187 178 184 198 209 224 224 218 209 189 188 177 173 173 172 197 217 174 171 164 176 185 183 171 164 167 180 164 182 194 117 124 119 256 104 101 186 227 194 245 280 314 284 281 271 266 266 268 267 254 248 251 251 250 252 254 254
150 155 162 164 172 180 178 179 182 176 167 163 189 191 173 221 169 160 158 147 148 158 150 155 168 164 169 174 175 182 185 166 168 184 198 198 214 213 209 229 205 193 191 186 194 194 177 170 182 175 175 188 185 177 178 175 152 153 181 179 126 50 75 100 201 45 103 233 250 201 228 250 210 258 276 262 258 263 260 257 256 252 249 246 247 250 253 254
143 144 153 162 170 172 171 172 172 168 164 164 187 171 116 210 166 139 163 141 109 155 162 158 163 165 170 176 177 174 178 176 164 178 194 187 212 201 190 212 218 202 204 201 207 243 169 125 245 201 177 180 173 167 180 205 310 181 174 164 147 165 194 158 187 201 189 225 258 231 227 223 202 225 274 262 240 251 255 243 244 248 243 243 247 251 256 257
135 130 132 156 165 168 168 165 160 156 156 169 182 163 138 188 136 130 160 144 105 144 177 174 133 162 176 176 171 169 178 182 164 169 194 185 193 196 182 192 206 202 206 203 195 247 186 151 170 229 183 150 145 172 183 199 302 356 139 161 175 183 185 180 182 175 182 215 248 266 231 237 227 204 211 240 245 246 242 227 227 235 235 238 244 252 258 254
133 117 104 149 162 169 166 159 149 146 153 166 161 141 128 132 111 123 137 139 91 102 172 188 144 162 173 180 177 173 180 184 171 175 193 172 164 187 185 187 197 198 200 202 205 215 184 173 176 171 299 171 172 194 189 180 175 151 159 182 192 177 142 177 188 154 143 189 234 264 260 254 252 198 192 214 234 241 228 204 215 229 232 238 243 247 245 231
136 107 109 143 156 165 160 151 143 137 125 132 121 87 121 128 123 103 104 119 102 45 112 126 137 159 163 176 180 179 182 183 178 179 188 175 168 172 188 192 194 186 188 198 211 204 184 190 176 160 195 198 186 192 192 185 178 172 179 186 184 173 140 167 207 185 130 183 193 217 259 258 238 201 197 206 226 235 208 187 204 221 227 234 230 218 207 204
134 99 132 140 150 159 154 138 130 124 83 132 142 135 131 127 129 121 103 104 99 74 97 97 65 115 131 160 171 172 172 175 181 183 190 189 183 165 178 193 197 187 182 196 202 189 155 121 149 156 184 198 196 166 144 177 190 188 186 181 178 170 156 177 206 191 178 218 198 184 258 269 231 195 197 210 226 224 204 199 200 206 209 202 189 189 193 201
113 108 141 145 150 157 153 111 117 126 71 131 126 130 134 126 129 139 141 128 115 114 113 108 11 296 125 101 142 162 164 171 185 187 192 195 192 171 158 181 198 195 184 197 194 169 97 107 142 136 85 18 344 25 54 72 191 199 316 186 178 185 183 186 195 165 178 212 203 211 248 260 260 214 206 218 224 220 211 204 186 175 181 184 187 194 204 214
105 110 132 148 152 155 152 117 137 139 161 120 108 124 129 120 138 143 139 132 136 134 115 122 123 19 62 57 119 157 158 155 186 190 194 197 197 177 159 176 195 198 192 198 182 166 175 180 151 143 144 66 22 162 83 53 180 188 202 197 193 193 185 171 154 148 205 213 196 208 236 237 262 320 14 14 206 194 186 179 170 169 178 187 195 203 214 223
109 103 107 146 156 148 97 105 130 135 154 115 104 128 91 71 130 145 139 132 143 143 112 117 128 110 88 47 46 124 137 117 147 179 183 222 225 177 162 178 191 198 210 208 182 170 178 189 173 170 176 180 186 190 181 171 178 191 192 190 196 195 186 183 185 188 217 213 193 207 232 242 314 313 338 2 333 204 188 167 170 181 191 197 203 209 214 218
113 102 102 138 154 123 63 59 71 108 149 118 102 128 92 67 84 138 130 117 128 129 98 113 131 108 91 78 63 81 129 91 103 129 145 185 271 233 139 159 183 206 217 210 184 165 146 200 205 205 203 194 191 193 176 165 171 184 191 192 197 198 191 189 192 203 214 206 189 220 236 246 261 255 270 296 272 234 224 187 181 190 200 206 208 209 210 208
96 110 127 125 135 147 42 23 48 87 155 144 130 125 116 114 125 136 132 144 152 139 94 72 143 124 135 141 103 107 144 99 108 135 152 178 265 326 86 111 151 216 220 209 186 164 112 202 211 221 228 217 139 110 141 162 176 185 189 191 194 193 190 194 207 215 210 198 236 235 234 245 247 233 247 261 248 235 228 203 197 202 208 212 210 209 209 201
82 104 132 134 125 159 144 94 136 101 106 143 137 146 154 149 148 147 137 136 154 158 124 60 183 170 160 158 129 112 130 107 127 162 162 169 162 356 352 39 100 208 210 201 189 168 121 207 208 215 227 230 149 143 158 172 187 190 186 185 186 185 187 197 211 216 201 198 232 228 213 229 237 222 216 228 227 224 223 215 214 215 215 214 210 211 213 205
79 94 128 141 97 135 152 163 157 119 86 120 121 150 162 161 167 174 143 122 160 188 154 145 205 189 162 154 134 124 153 149 165 189 167 165 170 132 104 300 255 197 186 199 199 169 157 207 202 206 221 231 211 176 171 175 188 194 190 188 187 186 191 197 206 214 209 210 231 231 221 229 235 216 205 221 228 236 244 241 230 222 221 220 214 216 219 213
68 78 132 130 63 127 151 142 127 119 75 94 124 187 159 156 175 184 118 137 154 211 194 169 186 179 163 156 148 163 178 150 131 175 158 138 173 181 170 191 292 156 183 213 215 172 185 199 185 191 216 225 215 200 184 180 184 190 193 194 191 190 197 203 208 212 211 219 233 236 236 240 238 174 175 212 221 229 241 242 231 222 223 221 215 220 226 219
78 85 128 129 67 124 148 106 105 117 56 60 123 231 130 162 188 184 194 187 170 181 195 150 135 144 152 166 179 200 189 160 148 165 165 165 177 168 168 155 77 83 212 220 191 178 206 196 175 179 206 212 202 199 191 185 188 191 192 193 192 193 200 205 210 208 202 212 226 231 240 247 234 155 171 195 199 208 219 220 217 217 219 217 214 224 231 223
86 97 134 139 70 93 139 117 98 102 112 192 149 3 143 178 187 165 169 233 205 187 172 135 126 121 137 193 213 217 200 189 185 171 162 171 174 126 34 7 75 101 222 237 196 186 175 173 176 176 195 208 197 192 187 180 188 200 198 192 191 196 202 204 210 212 205 208 215 218 232 238 202 167 203 205 191 199 206 207 210 211 211 212 218 229 232 224
Height
1449 1451 1454 1457 1460 1462 1465 1467 1469 1471 1474 1476 1479 1482 1485 1488 1490 1493 1495 1497 1500 1502 1504 1507 1510 1513 1515 1516 1518 1520 1521 1522 1523 1524 1524 1526 1529 1531 1532 1534 1537 1539 1541 1542 1543 1545 1546 1548 1550 1552 1554 1555 1556 1557 1558 1559 1559 1561 1562 1566 1568 1565 1564 1562 1560 1560 1559 1560 1559 1559 1559 1559 1560 1561 1561 1562 1563 1563 1564 1564 1564 1565 1565 1566 1567 1567 1568 1569
1446 1448 1451 1454 1457 1460 1462 1465 1467 1470 1472 1474 1477 1479 1482 1486 1488 1491 1494 1496 1499 1501 1503 1505 1508 1511 1514 1516 1517 1519 1520 1521 1522 1521 1521 1526 1528 1529 1531 1533 1536 1538 1540 1541 1541 1543 1545 1547 1549 1551 1553 1554 1555 1556 1557 1558 1559 1560 1561 1565 1566 1562 1561 1559 1559 1558 1558 1559 1559 1558 1559 1559 1560 1561 1561 1562 1563 1563 1564 1564 1564 1565 1565 1566 1566 1567 1568 1569
1442 1445 1448 1451 1454 1457 1460 1462 1465 1468 1470 1472 1475 1477 1480 1483 1486 1489 1492 1495 1497 1499 1502 1504 1507 1510 1513 1515 1517 1518 1519 1521 1519 1516 1519 1524 1526 1528 1530 1532 1535 1537 1539 1540 1541 1543 1545 1548 1550 1551 1552 1554 1555 1555 1556 1557 1558 1558 1560 1564 1564 1560 1559 1558 1558 1558 1558 1559 1558 1558 1559 1559 1560 1560 1561 1561 1562 1562 1563 1563 1564 1564 1564 1565 1566 1566 1567 1568
1439 1442 1445 1448 1451 1454 1458 1460 1463 1466 1468 1471 1473 1475 1478 1481 1484 1487 1490 1493 1495 1498 1500 1503 1505 1508 1512 1514 1516 1517 1519 1521 1515 1512 1518 1522 1524 1526 1528 1531 1533 1535 1537 1539 1540 1542 1544 1548 1550 1550 1552 1553 1554 1555 1555 1556 1556 1557 1558 1560 1560 1559 1559 1558 1558 1559 1559 1559 1558 1558 1558 1558 1559 1559 1560 1560 1562 1562 1561 1561 1561 1562 1562 1563 1564 1565 1566 1567
1436 1439 1442 1445 1448 1451 1454 1458 1461 1464 1466 1469 1471 1474 1476 1479 1482 1485 1488 1491 1494 1496 1499 1502 1504 1507 1510 1513 1516 1516 1519 1521 1512 1510 1517 1519 1521 1524 1526 1530 1532 1534 1536 1538 1539 1540 1543 1546 1548 1550 1551 1552 1553 1554 1554 1554 1555 1556 1557 1556 1557 1558 1559 1558 1558 1559 1559 1559 1559 1558 1558 1558 1558 1558 1559 1560 1561 1561 1560 1560 1560 1560 1560 1561 1562 1563 1564 1565
1433 1436 1439 1442 1445 1448 1451 1455 1458 1461 1464 1467 1470 1472 1474 1477 1480 1483 1486 1489 1492 1495 1498 1500 1503 1506 1509 1511 1515 1515 1516 1516 1510 1509 1513 1516 1519 1521 1524 1528 1531 1534 1536 1537 1539 1539 1541 1545 1547 1549 1550 1551 1552 1552 1552 1553 1554 1556 1557 1556 1556 1558 1558 1558 1558 1558 1559 1559 1559 1558 1558 1558 1558 1558 1558 1558 1559 1559 1559 1559 1559 1559 1560 1560 1561 1562 1562 1563
1429 1433 1436 1439 1442 1445 1448 1451 1455 1458 1462 1465 1468 1471 1473 1475 1478 1481 1484 1488 1490 1493 1496 1499 1502 1505 1508 1510 1513 1514 1513 1510 1508 1508 1509 1513 1517 1519 1523 1526 1529 1532 1534 1536 1537 1538 1541 1543 1546 1547 1548 1550 1550 1550 1551 1552 1553 1554 1556 1556 1555 1557 1557 1557 1558 1558 1558 1559 1558 1558 1558 1557 1557 1557 1557 1557 1557 1558 1558 1558 1558 1559 1559 1559 1560 1560 1560 1561
1426 1430 1433 1436 1440 1442 1446 1449 1452 1455 1459 1463 1466 1469 1472 1474 1477 1480 1483 1486 1489 1492 1494 1497 1500 1503 1506 1508 1510 1513 1510 1506 1508 1508 1507 1510 1515 1518 1521 1524 1527 1530 1532 1535 1536 1537 1540 1542 1543 1544 1546 1547 1548 1549 1549 1552 1554 1554 1555 1555 1555 1556 1556 1557 1557 1558 1558 1558 1558 1558 1557 1557 1556 1556 1556 1555 1556 1557 1557 1557 1557 1558 1558 1558 1558 1558 1558 1559
1424 1427 1431 1434 1437 1440 1443 1446 1449 1452 1456 1460 1464 1467 1470 1473 1475 1478 1481 1485 1487 1490 1493 1496 1498 1500 1504 1505 1509 1510 1502 1502 1508 1508 1507 1509 1513 1516 1519 1521 1525 1528 1531 1534 1535 1537 1539 1540 1542 1542 1544 1545 1546 1547 1548 1551 1554 1552 1553 1554 1554 1555 1556 1556 1557 1557 1558 1558 1558 1558 1557 1555 1555 1556 1554 1553 1554 1555 1555 1556 1555 1556 1557 1557 1557 1557 1557 1557
1421 1425 1428 1431 1435 1438 1441 1444 1447 1450 1453 1457 1461 1465 1468 1471 1474 1477 1480 1483 1486 1489 1491 1494 1496 1499 1502 1503 1508 1504 1494 1501 1509 1507 1508 1510 1512 1515 1517 1519 1522 1526 1529 1532 1534 1535 1537 1538 1540 1542 1544 1544 1545 1547 1547 1549 1549 1550 1552 1553 1553 1554 1555 1555 1556 1557 1557 1557 1557 1557 1556 1554 1555 1555 1553 1552 1552 1553 1553 1553 1554 1554 1555 1555 1555 1555 1556 1556
1418 1422 1426 1429 1432 1436 1439 1442 1445 1448 1451 1454 1459 1463 1466 1470 1473 1475 1479 1482 1484 1487 1490 1493 1494 1496 1499 1501 1502 1496 1491 1500 1508 1509 1511 1511 1512 1513 1515 1518 1521 1524 1527 1530 1532 1534 1536 1536 1538 1542 1545 1545 1545 1547 1547 1547 1547 1548 1551 1553 1553 1554 1554 1555 1555 1556 1556 1556 1556 1555 1554 1553 1554 1553 1551 1551 1551 1551 1551 1551 1552 1552 1553 1554 1554 1554 1555 1555
1415 1419 1423 1427 1430 1433 1437 1440 1443 1446 1449 1452 1457 1461 1465 1468 1471 1474 1477 1480 1483 1486 1489 1491 1493 1494 1496 1498 1495 1491 1493 1499 1505 1510 1512 1512 1513 1513 1515 1518 1520 1523 1525 1528 1531 1533 1535 1536 1537 1541 1545 1546 1546 1547 1547 1547 1547 1548 1550 1553 1554 1554 1554 1554 1554 1555 1556 1556 1555 1555 1556 1553 1551 1550 1549 1549 1549 1549 1549 1549 1550 1551 1551 1552 1552 1553 1553 1553
1411 1416 1420 1424 1427 1431 1434 1438 1441 1445 1448 1451 1454 1459 1463 1466 1470 1473 1476 1479 1482 1485 1487 1489 1492 1493 1494 1494 1492 1492 1495 1499 1502 1508 1512 1514 1516 1515 1517 1519 1521 1524 1526 1527 1530 1532 1534 1535 1536 1540 1545 1547 1546 1547 1546 1546 1547 1549 1550 1552 1555 1557 1556 1552 1553 1555 1555 1555 1553 1557 1561 1553 1547 1547 1547 1547 1546 1546 1547 1547 1548 1548 1549 1550 1550 1551 1551 1552
1409 1413 1417 1421 1424 1428 1432 1436 1439 1443 1446 1449 1452 1457 1461 1465 1468 1471 1475 1478 1481 1484 1486 1488 1490 1492 1493 1491 1491 1493 1496 1499 1502 1504 1510 1515 1516 1516 1518 1519 1521 1524 1526 1528 1530 1532 1533 1535 1536 1540 1546 1548 1546 1546 1546 1547 1548 1549 1552 1553 1555 1560 1556 1549 1551 1553 1553 1554 1551 1557 1562 1552 1546 1546 1545 1545 1544 1544 1544 1545 1546 1546 1547 1548 1548 1549 1549 1550
1406 1410 1414 1418 1421 1425 1430 1434 1437 1441 1444 1447 1451 1456 1460 1464 1467 1470 1473 1476 1479 1482 1485 1487 1488 1491 1493 1490 1489 1492 1495 1499 1501 1502 1507 1513 1515 1515 1516 1518 1521 1523 1526 1529 1530 1532 1533 1534 1535 1540 1547 1548 1546 1546 1547 1549 1549 1549 1554 1558 1556 1558 1555 1548 1548 1550 1550 1550 1549 1555 1559 1549 1544 1544 1543 1543 1542 1542 1542 1543 1544 1544 1545 1546 1546 1547 1547 1548
1403 1407 1411 1415 1418 1422 1427 1431 1435 1439 1443 1446 1450 1454 1459 1463 1466 1469 1472 1475 1478 1481 1483 1485 1486 1489 1490 1488 1488 1489 1492 1495 1499 1503 1505 1508 1513 1513 1514 1518 1520 1522 1525 1528 1531 1532 1533 1534 1536 1541 1546 1548 1546 1545 1549 1553 1553 1550 1553 1558 1558 1557 1558 1553 1547 1545 1545 1547 1548 1551 1552 1547 1542 1540 1540 1541 1541 1541 1541 1541 1542 1542 1542 1543 1544 1544 1545 1546
1400 1404 1408 1412 1416 1420 1424 1429 1433 1437 1441 1445 1449 1453 1458 1462 1465 1469 1472 1474 1477 1479 1481 1482 1484 1489 1488 1484 1485 1485 1488 1492 1497 1502 1503 1506 1511 1511 1514 1518 1519 1522 1524 1528 1531 1532 1534 1535 1536 1541 1545 1547 1545 1544 1552 1558 1557 1554 1552 1555 1555 1555 1558 1555 1547 1542 1543 1546 1546 1547 1548 1544 1540 1539 1540 1541 1541 1540 1540 1540 1540 1540 1541 1541 1541 1542 1543 1544
1397 1401 1405 1410 1414 1418 1422 1426 1431 1435 1439 1444 1448 1452 1457 1461 1465 1468 1471 1473 1476 1478 1480 1480 1483 1488 1485 1480 1482 1482 1485 1491 1495 1499 1502 1504 1508 1510 1514 1516 1517 1520 1524 1527 1529 1530 1534 1535 1536 1540 1544 1546 1544 1544 1550 1553 1552 1553 1554 1554 1554 1552 1553 1552 1546 1541 1541 1544 1546 1548 1548 1542 1538 1539 1540 1540 1541 1540 1539 1539 1539 1538 1539 1539 1539 1539 1539 1540
1395 1399 1403 1407 1411 1415 1420 1424 1429 1433 1438 1443 1447 1453 1458 1462 1465 1466 1468 1470 1471 1472 1474 1475 1476 1478 1476 1474 1477 1481 1484 1489 1493 1496 1499 1502 1505 1509 1513 1515 1516 1518 1521 1524 1526 1528 1530 1534 1537 1539 1541 1542 1541 1541 1544 1544 1544 1547 1549 1550 1551 1551 1550 1547 1543 1539 1540 1544 1546 1546 1546 1541 1537 1539 1538 1538 1539 1539 1538 1537 1537 1536 1536 1536 1536 1536 1536 1536
1392 1396 1401 1405 1409 1413 1418 1422 1427 1431 1436 1441 1446 1451 1455 1458 1462 1463 1466 1466 1465 1466 1468 1469 1469 1470 1470 1470 1474 1478 1482 1487 1490 1492 1496 1499 1501 1506 1513 1515 1518 1520 1520 1520 1523 1525 1527 1533 1535 1532 1532 1535 1537 1538 1539 1540 1540 1543 1546 1548 1548 1548 1547 1543 1540 1538 1538 1543 1545 1543 1543 1540 1536 1537 1536 1536 1537 1536 1535 1534 1534 1533 1533 1533 1533 1533 1533 1532
1389 1394 1398 1402 1406 1411 1415 1420 1425 1429 1434 1438 1442 1445 1446 1448 1452 1453 1458 1463 1463 1465 1467 1468 1470 1471 1470 1471 1472 1475 1480 1484 1487 1489 1494 1498 1499 1503 1510 1514 1519 1522 1520 1519 1521 1523 1527 1531 1528 1524 1525 1530 1533 1535 1537 1539 1539 1540 1544 1547 1548 1547 1545 1540 1537 1538 1538 1541 1542 1541 1543 1540 1535 1534 1533 1533 1534 1532 1531 1531 1531 1530 1530 1530 1530 1529 1529 1529
1387 1391 1395 1400 1404 1408 1413 1418 1423 1428 1433 1437 1439 1441 1440 1441 1445 1446 1451 1458 1460 1463 1466 1467 1470 1471 1471 1471 1472 1475 1478 1481 1485 1487 1491 1497 1499 1499 1504 1511 1516 1519 1519 1521 1521 1524 1528 1525 1519 1518 1522 1527 1531 1532 1535 1538 1538 1540 1543 1546 1548 1546 1543 1541 1538 1538 1539 1541 1541 1541 1543 1539 1533 1531 1531 1530 1530 1527 1526 1527 1527 1527 1527 1526 1525 1525 1526 1527
1384 1388 1393 1397 1401 1406 1411 1416 1422 1427 1431 1433 1434 1435 1436 1440 1446 1449 1452 1457 1460 1462 1464 1465 1467 1468 1469 1471 1471 1474 1476 1477 1481 1484 1487 1492 1495 1496 1499 1504 1509 1513 1516 1519 1519 1522 1523 1514 1510 1516 1521 1524 1529 1531 1533 1537 1538 1540 1543 1546 1547 1543 1543 1545 1542 1541 1540 1540 1540 1540 1542 1539 1533 1530 1527 1525 1525 1522 1522 1523 1522 1523 1522 1521 1521 1521 1522 1523
1380 1385 1390 1394 1399 1404 1409 1415 1421 1425 1427 1429 1430 1431 1435 1441 1447 1450 1453 1457 1459 1459 1461 1464 1466 1466 1467 1470 1471 1472 1473 1474 1476 1480 1484 1487 1490 1495 1496 1497 1503 1508 1511 1513 1514 1514 1509 1503 1507 1515 1518 1522 1528 1531 1532 1537 1539 1539 1540 1543 1544 1541 1541 1541 1541 1541 1542 1541 1540 1542 1545 1538 1531 1528 1523 1518 1520 1519 1518 1518 1518 1518 1518 1517 1518 1518 1518 1517
1377 1382 1387 1391 1397 1401 1408 1414 1417 1420 1423 1426 1427 1430 1437 1443 1448 1451 1454 1458 1458 1457 1460 1462 1464 1465 1466 1470 1472 1471 1472 1472 1473 1476 1481 1483 1484 1489 1493 1495 1497 1502 1504 1508 1511 1510 1505 1503 1508 1513 1516 1520 1524 1527 1528 1532 1538 1539 1537 1537 1539 1539 1539 1538 1540 1543 1547 1546 1540 1543 1549 1537 1525 1525 1521 1516 1518 1516 1514 1514 1514 1513 1514 1514 1514 1513 1513 1512
1374 1379 1383 1388 1393 1399 1407 1409 1410 1416 1421 1422 1423 1429 1438 1442 1448 1452 1454 1460 1458 1453 1456 1458 1460 1460 1462 1468 1469 1472 1475 1471 1471 1475 1478 1482 1483 1483 1489 1493 1494 1496 1498 1503 1507 1505 1504 1503 1505 1510 1515 1518 1522 1524 1523 1526 1535 1538 1531 1531 1535 1535 1536 1538 1539 1542 1547 1547 1540 1541 1548 1541 1528 1521 1518 1516 1516 1514 1512 1511 1510 1509 1509 1509 1509 1508 1508 1508
1371 1375 1380 1385 1391 1396 1400 1400 1405 1412 1414 1415 1419 1428 1436 1441 1448 1451 1455 1462 1452 1443 1449 1454 1454 1454 1456 1461 1464 1469 1472 1467 1470 1475 1475 1480 1483 1481 1484 1487 1491 1494 1493 1500 1505 1499 1498 1503 1505 1509 1513 1517 1519 1520 1518 1521 1531 1533 1526 1528 1533 1534 1537 1539 1539 1541 1543 1544 1542 1540 1543 1545 1536 1521 1514 1514 1515 1513 1511 1509 1506 1505 1505 1504 1503 1502 1503 1503
1367 1372 1377 1382 1387 1390 1393 1396 1403 1407 1407 1411 1418 1427 1434 1439 1446 1450 1455 1455 1437 1431 1443 1448 1449 1452 1454 1458 1460 1463 1463 1460 1465 1470 1473 1478 1480 1480 1482 1481 1483 1488 1489 1495 1499 1491 1489 1496 1500 1504 1510 1513 1511 1511 1513 1518 1526 1527 1524 1527 1532 1534 1538 1538 1539 1543 1544 1545 1546 1542 1542 1545 1535 1519 1513 1513 1514 1512 1507 1504 1502 1500 1499 1498 1497 1497 1497 1498
1364 1369 1373 1379 1385 1388 1392 1396 1399 1401 1405 1412 1419 1426 1433 1439 1444 1449 1452 1442 1424 1424 1435 1440 1446 1451 1452 1456 1459 1460 1460 1460 1462 1465 1470 1476 1477 1477 1478 1478 1479 1483 1486 1487 1487 1486 1486 1488 1491 1496 1503 1505 1505 1509 1512 1517 1522 1523 1524 1527 1531 1535 1538 1540 1542 1543 1546 1548 1545 1541 1543 1543 1529 1515 1513 1514 1514 1510 1502 1499 1497 1494 1492 1492 1492 1493 1493 1494
1361 1366 1371 1377 1381 1385 1390 1394 1396 1400 1407 1413 1419 1426 1433 1438 1443 1446 1441 1427 1420 1427 1430 1432 1440 1444 1448 1454 1457 1458 1459 1460 1461 1463 1468 1472 1474 1475 1475 1477 1479 1483 1488 1487 1486 1486 1485 1486 1490 1494 1497 1499 1503 1508 1510 1513 1518 1521 1526 1530 1535 1539 1540 1543 1542 1542 1548 1546 1538 1535 1537 1542 1534 1516 1510 1510 1505 1501 1497 1495 1493 1489 1488 1488 1488 1489 1489 1490
1358 1363 1368 1372 1375 1379 1384 1388 1392 1399 1406 1412 1418 1426 1433 1438 1441 1437 1427 1417 1419 1428 1428 1428 1434 1438 1442 1448 1452 1455 1458 1459 1459 1463 1468 1469 1471 1472 1472 1475 1479 1483 1487 1489 1490 1489 1486 1489 1492 1492 1494 1497 1502 1507 1510 1513 1515 1519 1525 1529 1537 1544 1545 1547 1547 1547 1550 1541 1533 1532 1533 1542 1538 1514 1504 1502 1496 1494 1494 1492 1489 1486 1485 1485 1485 1486 1486 1487
1355 1360 1365 1369 1372 1376 1380 1382 1388 1396 1402 1408 1415 1423 1430 1435 1433 1425 1420 1421 1420 1420 1423 1426 1428 1433 1439 1444 1446 1449 1453 1455 1457 1460 1465 1467 1466 1465 1465 1466 1471 1479 1483 1485 1490 1492 1490 1489 1488 1489 1493 1493 1498 1509 1516 1518 1519 1521 1524 1527 1537 1548 1549 1549 1549 1548 1545 1538 1533 1534 1536 1538 1525 1505 1500 1499 1492 1491 1489 1487 1485 1483 1483 1483 1483 1484 1484 1485
1353 1358 1362 1367 1370 1374 1378 1382 1388 1394 1399 1406 1413 1420 1426 1426 1420 1414 1419 1426 1417 1411 1419 1425 1424 1427 1435 1441 1444 1446 1449 1451 1453 1457 1462 1465 1463 1461 1460 1459 1460 1465 1472 1478 1484 1490 1493 1491 1488 1490 1493 1491 1492 1505 1516 1519 1520 1520 1518 1519 1527 1539 1545 1545 1546 1544 1541 1537 1532 1532 1538 1534 1515 1500 1496 1491 1486 1485 1484 1484 1483 1482 1482 1482 1482 1483 1483 1483
1352 1356 1360 1364 1369 1372 1376 1381 1386 1390 1397 1405 1411 1416 1420 1416 1411 1412 1420 1425 1417 1410 1416 1422 1424 1428 1430 1433 1437 1441 1446 1450 1451 1455 1462 1465 1463 1459 1458 1458 1458 1460 1467 1475 1476 1477 1483 1484 1481 1482 1484 1486 1485 1489 1495 1501 1508 1508 1505 1507 1512 1519 1528 1533 1536 1537 1537 1537 1535 1535 1535 1525 1509 1497 1489 1485 1484 1483 1481 1481 1481 1481 1481 1481 1481 1481 1481 1481
1351 1356 1359 1363 1368 1371 1375 1379 1383 1388 1396 1403 1409 1411 1410 1405 1405 1411 1417 1419 1416 1413 1415 1419 1424 1430 1432 1432 1434 1435 1438 1443 1448 1454 1461 1463 1461 1458 1456 1455 1457 1459 1465 1473 1473 1472 1475 1474 1472 1473 1474 1477 1480 1481 1483 1493 1507 1508 1504 1508 1510 1509 1512 1519 1525 1525 1527 1534 1536 1534 1525 1510 1500 1491 1483 1483 1483 1479 1479 1478 1478 1479 1478 1479 1480 1478 1478 1480
1350 1355 1360 1363 1366 1368 1372 1376 1380 1387 1392 1399 1407 1407 1402 1400 1403 1406 1409 1411 1411 1409 1414 1421 1423 1427 1432 1433 1435 1437 1436 1437 1444 1452 1457 1459 1458 1457 1455 1451 1451 1455 1458 1464 1467 1469 1474 1474 1471 1473 1474 1473 1476 1479 1481 1488 1498 1504 1507 1509 1507 1503 1504 1513 1522 1522 1525 1531 1529 1523 1515 1505 1501 1492 1481 1480 1478 1475 1477 1476 1476 1477 1476 1477 1477 1475 1476 1477
1349 1354 1359 1362 1364 1367 1371 1374 1379 1385 1390 1396 1401 1400 1399 1401 1401 1402 1403 1405 1406 1405 1408 1415 1419 1422 1427 1431 1433 1435 1436 1437 1443 1448 1451 1454 1453 1451 1453 1452 1449 1451 1452 1456 1459 1458 1464 1473 1471 1471 1475 1473 1472 1476 1480 1480 1484 1495 1504 1503 1502 1507 1507 1511 1521 1526 1530 1532 1523 1515 1511 1508 1508 1497 1481 1478 1477 1473 1474 1475 1475 1475 1475 1476 1474 1473 1474 1474
1350 1354 1359 1362 1364 1367 1370 1374 1377 1381 1389 1395 1396 1397 1400 1399 1396 1398 1401 1402 1404 1406 1405 1408 1413 1416 1421 1426 1429 1432 1434 1436 1442 1446 1447 1451 1447 1441 1447 1452 1449 1449 1450 1453 1459 1454 1455 1471 1477 1473 1474 1476 1475 1480 1485 1485 1484 1486 1490 1491 1496 1509 1513 1511 1516 1521 1526 1527 1517 1511 1510 1507 1503 1492 1478 1475 1476 1471 1471 1473 1473 1473 1473 1473 1471 1471 1472 1472
1350 1354 1359 1363 1365 1368 1370 1374 1376 1380 1387 1392 1393 1395 1398 1397 1394 1396 1400 1401 1403 1407 1407 1407 1409 1413 1417 1420 1422 1427 1430 1431 1437 1442 1441 1444 1444 1438 1440 1446 1447 1448 1448 1450 1456 1454 1451 1465 1477 1475 1474 1476 1478 1482 1486 1488 1490 1487 1488 1490 1489 1495 1502 1502 1503 1505 1512 1518 1512 1509 1510 1500 1489 1483 1476 1474 1472 1468 1468 1469 1470 1470 1469 1469 1469 1469 1470 1471
1351 1354 1360 1363 1365 1368 1371 1374 1377 1380 1384 1387 1389 1391 1393 1395 1395 1395 1398 1401 1403 1405 1407 1406 1408 1410 1414 1417 1418 1421 1424 1425 1430 1435 1433 1434 1437 1437 1437 1441 1444 1444 1446 1450 1452 1453 1452 1457 1468 1476 1477 1474 1474 1475 1474 1478 1484 1486 1490 1492 1488 1489 1495 1496 1496 1497 1502 1510 1510 1509 1506 1489 1475 1472 1471 1469 1465 1462 1463 1465 1467 1467 1465 1466 1467 1467 1469 1469
1352 1355 1361 1364 1365 1368 1371 1375 1379 1381 1382 1385 1387 1389 1391 1393 1395 1397 1399 1401 1402 1404 1404 1406 1408 1409 1411 1413 1415 1417 1420 1422 1425 1428 1428 1428 1429 1431 1433 1437 1439 1440 1445 1450 1450 1452 1453 1453 1461 1473 1476 1470 1467 1464 1462 1466 1470 1472 1477 1481 1481 1485 1492 1499 1503 1499 1497 1502 1502 1504 1500 1479 1464 1464 1463 1462 1461 1459 1461 1463 1463 1463 1463 1464 1465 1466 1468 1468
1353 1357 1362 1364 1366 1369 1372 1376 1379 1380 1382 1385 1386 1387 1389 1391 1394 1397 1400 1401 1402 1404 1405 1407 1410 1410 1409 1409 1411 1413 1417 1420 1422 1423 1423 1423 1421 1422 1426 1430 1435 1437 1441 1445 1445 1447 1449 1451 1459 1468 1470 1468 1466 1463 1464 1466 1466 1467 1471 1474 1477 1482 1486 1494 1500 1497 1495 1497 1495 1500 1498 1473 1457 1458 1458 1458 1457 1456 1459 1460 1460 1461 1462 1463 1465 1465 1467 1467
1354 1358 1363 1365 1367 1370 1373 1377 1380 1381 1382 1383 1384 1386 1387 1389 1392 1396 1399 1400 1402 1404 1406 1408 1411 1411 1409 1407 1409 1412 1414 1417 1419 1419 1419 1419 1418 1417 1419 1426 1433 1436 1438 1440 1442 1446 1448 1450 1459 1468 1470 1469 1468 1466 1465 1466 1468 1472 1474 1474 1476 1477 1476 1480 1485 1487 1493 1493 1491 1501 1498 1470 1454 1455 1455 1455 1455 1455 1457 1457 1458 1460 1461 1462 1464 1464 1465 1465
1354 1359 1363 1365 1369 1371 1372 1376 1379 1381 1382 1382 1383 1385 1386 1387 1390 1393 1397 1399 1401 1402 1404 1407 1409 1409 1408 1408 1408 1409 1413 1416 1418 1418 1419 1418 1417 1416 1417 1422 1429 1433 1434 1435 1437 1442 1446 1448 1454 1464 1471 1472 1472 1471 1471 1472 1473 1472 1473 1474 1473 1472 1474 1478 1480 1485 1489 1483 1484 1495 1489 1466 1454 1454 1454 1454 1455 1455 1456 1456 1457 1459 1460 1461 1462 1463 1464 1464
1355 1361 1365 1367 1369 1371 1372 1375 1377 1379 1381 1382 1384 1386 1386 1388 1390 1392 1394 1397 1399 1400 1402 1405 1407 1408 1409 1410 1409 1409 1411 1413 1416 1419 1420 1419 1418 1417 1416 1420 1426 1430 1431 1432 1432 1436 1441 1444 1444 1447 1452 1455 1455 1453 1454 1459 1465 1465 1464 1467 1467 1465 1468 1471 1476 1485 1484 1475 1477 1483 1474 1461 1455 1453 1453 1454 1455 1455 1455 1456 1456 1457 1459 1460 1460 1461 1462 1462
1354 1361 1367 1369 1370 1372 1373 1375 1376 1378 1380 1383 1387 1388 1389 1391 1392 1392 1394 1397 1398 1398 1400 1404 1405 1407 1410 1412 1413 1414 1414 1413 1416 1418 1420 1421 1420 1418 1417 1419 1423 1427 1429 1432 1433 1435 1439 1442 1439 1434 1431 1430 1431 1431 1431 1437 1449 1456 1457 1458 1460 1460 1462 1465 1472 1477 1472 1471 1477 1473 1464 1461 1458 1453 1453 1454 1455 1455 1454 1455 1455 1456 1457 1458 1459 1460 1460 1460
1354 1360 1364 1368 1371 1374 1375 1376 1376 1378 1379 1382 1386 1389 1390 1392 1393 1394 1394 1396 1397 1397 1399 1402 1402 1404 1409 1410 1412 1416 1417 1417 1417 1418 1421 1422 1420 1419 1418 1418 1422 1425 1428 1431 1432 1433 1438 1441 1438 1434 1430 1426 1429 1431 1431 1434 1442 1448 1450 1455 1459 1461 1464 1468 1469 1465 1462 1474 1480 1468 1461 1464 1459 1456 1455 1453 1452 1452 1451 1452 1454 1454 1455 1456 1457 1458 1458 1459
1356 1361 1363 1365 1369 1372 1374 1376 1377 1378 1379 1380 1384 1387 1389 1391 1392 1393 1394 1395 1395 1395 1398 1402 1402 1401 1403 1405 1407 1412 1416 1418 1418 1419 1421 1422 1422 1421 1420 1419 1421 1423 1427 1430 1430 1431 1437 1439 1435 1435 1434 1431 1431 1431 1431 1434 1438 1439 1444 1450 1454 1458 1461 1462 1462 1457 1458 1468 1465 1454 1458 1459 1449 1448 1451 1446 1445 1447 1446 1449 1452 1452 1453 1454 1455 1456 1456 1456
1357 1361 1364 1365 1367 1369 1372 1374 1376 1378 1379 1380 1383 1385 1387 1389 1391 1391 1392 1394 1395 1395 1395 1399 1401 1399 1400 1402 1403 1408 1413 1414 1416 1418 1419 1420 1421 1421 1422 1422 1421 1422 1426 1429 1428 1428 1433 1436 1435 1436 1437 1435 1434 1432 1430 1432 1436 1439 1442 1444 1446 1449 1451 1451 1451 1450 1452 1457 1451 1445 1450 1445 1432 1434 1441 1440 1442 1444 1445 1447 1449 1450 1452 1453 1453 1454 1453 1454
1360 1362 1365 1366 1368 1370 1372 1374 1376 1378 1378 1379 1382 1384 1385 1388 1390 1390 1390 1392 1395 1395 1393 1395 1398 1399 1400 1400 1400 1404 1406 1406 1410 1414 1415 1418 1420 1419 1421 1421 1420 1422 1426 1428 1427 1427 1429 1431 1433 1437 1439 1437 1435 1433 1430 1430 1433 1437 1441 1442 1444 1448 1449 1449 1448 1448 1453 1455 1446 1442 1447 1439 1427 1431 1438 1439 1442 1444 1444 1445 1446 1448 1450 1450 1450 1450 1450 1451
1363 1364 1365 1367 1370 1372 1373 1374 1376 1378 1380 1382 1383 1384 1386 1388 1389 1389 1389 1389 1391 1393 1393 1395 1399 1401 1403 1403 1401 1401 1401 1402 1405 1408 1409 1413 1416 1416 1418 1419 1419 1422 1426 1427 1428 1428 1429 1431 1432 1436 1438 1435 1432 1432 1430 1428 1430 1434 1438 1440 1443 1445 1445 1444 1440 1439 1444 1445 1442 1446 1447 1434 1425 1431 1436 1436 1438 1440 1441 1442 1443 1445 1446 1446 1447 1446 1445 1447
1365 1366 1367 1368 1371 1374 1375 1375 1377 1379 1382 1383 1383 1383 1385 1387 1387 1389 1390 1390 1390 1392 1394 1397 1400 1402 1404 1404 1401 1400 1400 1401 1403 1405 1408 1411 1414 1415 1417 1419 1420 1423 1426 1427 1427 1428 1430 1431 1430 1432 1431 1427 1427 1429 1428 1431 1435 1434 1428 1426 1428 1430 1430 1431 1430 1429 1430 1432 1437 1441 1432 1419 1420 1428 1430 1431 1434 1435 1436 1437 1438 1440 1441 1443 1442 1441 1441 1443